Regional Weather Roundup
Issued by NWS

Home | Current Version | Previous Version | Graphics & Text | Print | Product List | Glossary On
Versions: 1 2 3 4 5 6 7 8 9 10 11 12 13 14 15 16 17 18 19 20 21 22 23 24 25 26 27 28 29 30 31 32 33 34 35 36 37 38 39 40 41 42 43 44 45 46 47 48 49 50
000
ASUS44 KMEG 222010
RWRTN
TENNESSEE HOURLY STATE WEATHER ROUNDUP
NATIONAL WEATHER SERVICE MEMPHIS TN
300 PM CDT WED MAR 22 2017

TNZ002-004-019-021-049-052-054-088>092-222100-
WEST TENNESSEE

CITY           SKY/WX    TMP DP  RH WIND       PRES   REMARKS
MEMPHIS INTL   MOSUNNY   53  41  65 NE14G21   30.26F
NWS MEMPHIS      N/A     61 N/A N/A MISG        N/A
JACKSON        SUNNY     60  28  29 E9        30.27F
DYERSBURG      SUNNY     57  31  37 NE15G21   30.30F
SOMERVILLE     SUNNY     63  36  36 NE8       30.24F
BOLIVAR        SUNNY     63  32  31 VRB8G15   30.24F
PARIS          SUNNY     54  25  32 NE12      30.31F
HUNTINGDON     SUNNY     57  28  33 NE9       30.29F
SAVANNAH       SUNNY     61  30  31 N10G16    30.24F
$$

TNZ008-025-027-028-033-062-065-066-222100-
NORTH MIDDLE TENNESSEE

CITY           SKY/WX    TMP DP  RH WIND       PRES   REMARKS
NASHVILLE      PTSUNNY   57  20  23 E13G22    30.30F
PORTLAND       SUNNY     52  18  25 NE12G20   30.31F
CLARKSVILLE    MOSUNNY   54  19  25 NE13G21   30.33F
SMYRNA         PTSUNNY   58  20  22 N15G22    30.30F
COOKEVILLE     SUNNY     55  18  22 VRB8G17   30.26F
GALLATIN       SUNNY     55  19  24 NE9G16    30.33F
CROSSVILLE     CLOUDY    53  14  21 N13G22    30.25F
$$

TNZ061-075-076-078-094-096-097-222100-
SOUTH MIDDLE TENNESSEE

CITY           SKY/WX    TMP DP  RH WIND       PRES   REMARKS
FAYETTEVILLE   SUNNY     59  30  33 N8G17     30.24F
TULLAHOMA      SUNNY     55  19  24 NE7       30.26S
WINCHESTER     SUNNY     57  27  30 N10       30.25S
MCMINNVILLE    SUNNY     55  18  22 NE14      30.26F
COLUMBIA       SUNNY     57  25  28 NE10      30.27S
SHELBYVILLE    SUNNY     57  28  33 NE14      30.27F
$$

TNZ017-018-042-046-047-222100-
NORTHEAST TENNESSEE

CITY           SKY/WX    TMP DP  RH WIND       PRES   REMARKS
TRI CITIES     MOSUNNY   56  20  24 NE7       30.25F
ELIZABETHTON   SUNNY     55  19  24 N6        30.23S
$$

TNZ012-013-036-069-073-074-222100-
CENTRAL EAST TENNESSEE

CITY           SKY/WX    TMP DP  RH WIND       PRES   REMARKS
KNOXVILLE      CLOUDY    58  18  21 N14G22    30.23F
OAK RIDGE      MOSUNNY   60  14  16 NE9G18    30.25F
DOWNTOWN KNOXV SUNNY     59  18  20 VRB3      30.24F
GATLINBURG     SUNNY     55  21  26 N9        30.24S
MORRISTOWN     SUNNY     57  18  21 NE8       30.23F
JACKSBORO      SUNNY     55  19  24 NE10      30.29F
$$

TNZ083-085-099-222100-
SOUTHEAST TENNESSEE

CITY           SKY/WX    TMP DP  RH WIND       PRES   REMARKS
CHATTANOOGA    PTSUNNY   63  19  18 NE13      30.21F
$$

SKY/WX REPORTED AS FAIR MEANS FEW OR NO CLOUDS BELOW
12 THOUSAND FEET.




USA.gov is the U.S. government's official web portal to all federal, state and local government web resources and services.